Two Harbors, MN

9:17 PM CDT on May 27, 2017 (GMT -0500)
Helgeson

Weather History for KTWM - March, 2014

Change the Weather History Date:

Monday, March 3, 2014

  Actual Average Record
Temperature  
Mean Temperature -3 °F -  
Max Temperature 10 °F 32 °F 47 °F (1961)
Min Temperature -16 °F 15 °F -16 °F (2014)
Degree Days  
Heating Degree Days 68    
Moisture  
Dew Point -13 °F    
Average Humidity 59    
Maximum Humidity 78    
Minimum Humidity 37    
Precipitation  
Precipitation 0.00 in - - ()
Sea Level Pressure  
Sea Level Pressure 30.31 in    
Wind  
Wind Speed 5 mph (WSW)    
Max Wind Speed 10 mph    
Max Gust Speed -    
Visibility 8 miles    
Events Snow    
Averages and records for this station are not official NWS values.
T = Trace of Precipitation, MM = Missing Value Source: NWS Daily Summary

Daily Weather History Graph

Daily Weather History Graph

Search for Another Location

Airport or City:

Trip Planner

Search our weather history database for the weather conditions in past years. The results will help you decide how hot, cold, wet, or windy it might be!

Date:

Astronomy

Mar. 03, 2014 Rise Set
Actual Time 6:43 AM CST 5:55 PM CST
Civil Twilight 6:12 AM CST 6:25 PM CST
Nautical Twilight 5:37 AM CST 7:01 PM CST
Astronomical Twilight 5:02 AM CST 7:36 PM CST
Moon 7:39 AM CST (3/3) 9:13 PM CST (3/3)
Length of Visible Light 12h 13m
Length of Day
11h 12m
Waxing Crescent, 8% of the Moon is Illuminated
Mar 3
Waxing Crescent
Mar 8
First Quarter
Mar 16
Full
Mar 23
Last Quarter
Mar 30
New

Hourly Weather History & Observations

Time (CST) Temp. Windchill Dew Point Humidity Pressure Visibility Wind Dir Wind Speed Gust Speed Precip Events Conditions
12:13 AM -9.4 °F -18.6 °F -20.2 °F 59% 30.40 in 10.0 mi WSW 3.5 mph - N/A   Clear
12:33 AM -11.2 °F -20.6 °F -20.2 °F 64% 30.40 in 10.0 mi West 3.5 mph - N/A   Clear
12:54 AM -11.2 °F -20.6 °F -22.0 °F 59% 30.41 in 10.0 mi WNW 3.5 mph - N/A   Clear
1:13 AM -11.2 °F -23.0 °F -23.8 °F 54% 30.41 in 10.0 mi West 4.6 mph - N/A   Clear
1:33 AM -14.8 °F -24.8 °F -23.8 °F 64% 30.42 in 10.0 mi West 3.5 mph - N/A   Clear
1:54 AM -14.8 °F -24.8 °F -23.8 °F 64% 30.41 in 10.0 mi West 3.5 mph - N/A   Clear
2:13 AM -16.6 °F -29.3 °F -25.6 °F 64% 30.42 in 10.0 mi West 4.6 mph - N/A   Clear
2:33 AM -14.8 °F -27.2 °F -23.8 °F 64% 30.41 in 10.0 mi WNW 4.6 mph - N/A   Clear
2:54 AM -13.0 °F -28.6 °F -23.8 °F 59% 30.40 in 10.0 mi NW 6.9 mph - N/A   Clear
3:13 AM -13.0 °F -27.0 °F -23.8 °F 59% 30.40 in 10.0 mi NW 5.8 mph - N/A   Clear
3:33 AM -13.0 °F -25.1 °F -23.8 °F 59% 30.40 in 10.0 mi NW 4.6 mph - N/A   Clear
3:54 AM -13.0 °F -25.1 °F -23.8 °F 59% 30.40 in 10.0 mi NNW 4.6 mph - N/A   Clear
4:13 AM -13.0 °F -28.6 °F -23.8 °F 59% 30.40 in 10.0 mi NW 6.9 mph - N/A   Clear
4:33 AM -13.0 °F -22.7 °F -23.8 °F 59% 30.40 in 10.0 mi North 3.5 mph - N/A   Clear
4:54 AM -14.8 °F - -23.8 °F 64% 30.40 in 10.0 mi Calm Calm - N/A   Clear
5:13 AM -14.8 °F -24.8 °F -23.8 °F 64% 30.40 in 10.0 mi North 3.5 mph - N/A   Clear
5:33 AM -14.8 °F - -23.8 °F 64% 30.39 in 10.0 mi Calm Calm - N/A   Clear
5:54 AM -14.8 °F -24.8 °F -23.8 °F 64% 30.39 in 10.0 mi North 3.5 mph - N/A   Clear
6:13 AM -16.6 °F - -23.8 °F 70% 30.39 in 10.0 mi Calm Calm - N/A   Clear
6:33 AM -16.6 °F - -23.8 °F 70% 30.39 in 10.0 mi Calm Calm - N/A   Clear
6:54 AM -16.6 °F - -25.6 °F 64% 30.38 in 10.0 mi Calm Calm - N/A   Clear
7:13 AM -14.8 °F -24.8 °F -23.8 °F 64% 30.38 in 10.0 mi NNW 3.5 mph - N/A   Clear
7:33 AM -13.0 °F - -23.8 °F 59% 30.37 in 10.0 mi Calm Calm - N/A   Clear
7:53 AM -11.2 °F - -22.0 °F 59% 30.37 in 10.0 mi Calm Calm - N/A   Clear
8:13 AM -7.6 °F -18.8 °F -20.2 °F 54% 30.36 in 10.0 mi WNW 4.6 mph - N/A   Clear
8:33 AM -5.8 °F -14.5 °F -18.4 °F 55% 30.36 in 10.0 mi WNW 3.5 mph - N/A   Clear
8:53 AM -2.2 °F -12.5 °F -18.4 °F 46% 30.36 in 10.0 mi NW 4.6 mph - N/A   Clear
9:13 AM -0.4 °F -14.7 °F -16.6 °F 46% 30.35 in 10.0 mi West 8.1 mph - N/A   Clear
9:33 AM 1.4 °F -12.5 °F -16.6 °F 43% 30.35 in 10.0 mi West 8.1 mph - N/A   Clear
9:53 AM 1.4 °F -11.3 °F -16.6 °F 43% 30.35 in 10.0 mi West 6.9 mph - N/A   Clear
10:13 AM 3.2 °F -10.3 °F -16.6 °F 39% 30.34 in 10.0 mi West 8.1 mph - N/A   Clear
10:33 AM 3.2 °F -12.2 °F -14.8 °F 43% 30.33 in 10.0 mi WSW 10.4 mph - N/A   Clear
10:53 AM 5.0 °F -10.0 °F -14.8 °F 40% 30.33 in 10.0 mi SW 10.4 mph - N/A   Clear
11:13 AM 6.8 °F -5.9 °F -14.8 °F 37% 30.33 in 10.0 mi SW 8.1 mph - N/A   Clear
11:33 AM 6.8 °F -5.9 °F -14.8 °F 37% 30.32 in 10.0 mi WSW 8.1 mph - N/A   Clear
11:53 AM 6.8 °F -7.8 °F -11.2 °F 44% 30.32 in 10.0 mi WSW 10.4 mph - N/A   Clear
12:13 PM 6.8 °F -6.9 °F -13.0 °F 40% 30.31 in 10.0 mi WSW 9.2 mph - N/A   Clear
12:34 PM 8.6 °F -4.7 °F -13.0 °F 37% 30.30 in 10.0 mi WSW 9.2 mph - N/A   Clear
12:53 PM 8.6 °F -1.3 °F -11.2 °F 40% 30.29 in 10.0 mi West 5.8 mph - N/A   Clear
1:13 PM 10.4 °F -2.4 °F -11.2 °F 37% 30.29 in 10.0 mi WSW 9.2 mph - N/A   Clear
1:33 PM 10.4 °F -1.5 °F -11.2 °F 37% 30.28 in 10.0 mi West 8.1 mph - N/A   Clear
1:53 PM 10.4 °F -3.3 °F -11.2 °F 37% 30.27 in 10.0 mi SW 10.4 mph - N/A   Clear
2:13 PM 10.4 °F 0.8 °F -11.2 °F 37% 30.26 in 10.0 mi West 5.8 mph - N/A   Clear
2:33 PM 10.4 °F -3.3 °F -9.4 °F 41% 30.26 in 10.0 mi SW 10.4 mph - N/A   Clear
2:53 PM 10.4 °F -0.4 °F -7.6 °F 44% 30.25 in 10.0 mi SSW 6.9 mph - N/A   Clear
3:13 PM 8.6 °F -3.7 °F -7.6 °F 48% 30.25 in 10.0 mi South 8.1 mph - N/A   Scattered Clouds
3:34 PM 8.6 °F -3.7 °F -7.6 °F 48% 30.24 in 10.0 mi SSW 8.1 mph - N/A   Scattered Clouds
3:53 PM 8.6 °F -4.7 °F -7.6 °F 48% 30.24 in 10.0 mi SSW 9.2 mph - N/A   Mostly Cloudy
4:13 PM 8.6 °F -4.7 °F -7.6 °F 48% 30.24 in 10.0 mi SSW 9.2 mph - N/A   Overcast
4:34 PM 8.6 °F -4.7 °F -7.6 °F 48% 30.24 in 10.0 mi SSW 9.2 mph - N/A   Overcast
4:53 PM 8.6 °F -4.7 °F -7.6 °F 48% 30.24 in 10.0 mi SSW 9.2 mph - N/A   Overcast
5:13 PM 6.8 °F -6.9 °F -2.2 °F 67% 30.24 in 5.0 mi SSW 9.2 mph - N/A   Haze
5:33 PM 6.8 °F -7.8 °F -0.4 °F 72% 30.24 in 1.5 mi SSW 10.4 mph - N/A Snow Light Snow
5:53 PM 6.8 °F -4.8 °F -0.4 °F 72% 30.24 in 1.8 mi SW 6.9 mph - N/A Snow Light Snow
6:13 PM 6.8 °F -6.9 °F -0.4 °F 72% 30.24 in 2.5 mi SW 9.2 mph - N/A Snow Light Snow
6:33 PM 5.0 °F -8.1 °F -0.4 °F 78% 30.23 in 3.0 mi SW 8.1 mph - N/A Snow Light Snow
6:53 PM 5.0 °F -5.6 °F -0.4 °F 78% 30.23 in 2.5 mi SW 5.8 mph - N/A Snow Light Snow
7:13 PM 5.0 °F -5.6 °F -0.4 °F 78% 30.23 in 2.5 mi SW 5.8 mph - N/A Snow Light Snow
7:33 PM 5.0 °F -5.6 °F -0.4 °F 78% 30.23 in 2.0 mi SW 5.8 mph - N/A Snow Light Snow
7:53 PM 5.0 °F -2.1 °F -0.4 °F 78% 30.22 in 2.0 mi SW 3.5 mph - N/A Snow Light Snow
8:13 PM 5.0 °F -4.1 °F -0.4 °F 78% 30.22 in 3.0 mi WSW 4.6 mph - N/A Snow Light Snow
8:33 PM 5.0 °F -6.9 °F -2.2 °F 72% 30.21 in 4.0 mi WSW 6.9 mph - N/A Snow Light Snow
8:53 PM 5.0 °F -4.1 °F -2.2 °F 72% 30.21 in 4.0 mi WSW 4.6 mph - N/A Snow Light Snow
9:13 PM 5.0 °F -4.1 °F -0.4 °F 78% 30.21 in 2.5 mi WSW 4.6 mph - N/A Snow Light Snow
9:33 PM 5.0 °F - -2.2 °F 72% 30.21 in 2.5 mi Calm Calm - N/A Snow Light Snow
9:53 PM 3.2 °F -6.2 °F -2.2 °F 78% 30.21 in 4.0 mi SSW 4.6 mph - N/A Snow Light Snow
10:13 PM 3.2 °F - -2.2 °F 78% 30.20 in 2.0 mi Calm Calm - N/A Snow Light Snow
10:33 PM 3.2 °F - -2.2 °F 78% 30.20 in 1.8 mi Calm Calm - N/A Snow Light Snow
10:53 PM 3.2 °F - -2.2 °F 78% 30.20 in 3.0 mi Calm Calm - N/A Snow Light Snow
11:13 PM 3.2 °F -4.2 °F -2.2 °F 78% 30.19 in 7.0 mi SSW 3.5 mph - N/A Snow Light Snow
11:33 PM 3.2 °F -6.2 °F -2.2 °F 78% 30.19 in 7.0 mi SW 4.6 mph - N/A Snow Light Snow
11:53 PM 3.2 °F - -2.2 °F 78% 30.19 in 3.0 mi Calm Calm - N/A Snow Light Snow